Flag for Australia Weather past 2 weeks in Brisbane, Queensland, Australia

Now
63 °F

Clear.


Feels Like: 63 °F
Forecast: 56 / 82 °F
Wind: 6 mph from Southwest

Location: Brisbane Airport M. O

Current Time: May 6, 2015 at 3:20:00 AM

Latest Report: May 6, 2015 at 3:00 AM


Visibility: 10 mi

Pressure: 29.86 "Hg

Humidity: 94%

Dew point: 61 °F

Location of BrisbaneLocation

Historic Weather in Brisbane — Graph

°F

Brisbane temperature yesterday

Maximum temperature yesterday: 77 °F (at 10:30 AM)
Minimum temperature yesterday: 61 °F (at 5:30 AM)
Average temperature yesterday: 69 °F

Past Weeks' High & Low Weather Summary

 TemperatureHumidityPressure
High81 °F (Apr 25, 11:00 AM)100% (Apr 30, 5:00 PM)30.30 "Hg (Apr 30, 5:00 PM)
Low52 °F (Apr 23, 5:00 AM)22% (Apr 26, 1:30 PM)29.68 "Hg (May 1, 10:00 PM)
Average66 °F72%29.95 "Hg
* Reported Apr 21 2:00 AM — May 6 2:00 AM, Brisbane, Weather by CustomWeather, © 2015

Note: Actual official high and low records may vary slightly from our data, if they occured in-between our weather recording intervals... More about our weather records

Advertising

Brisbane weather history for previous 24 hours

 ConditionsComfort  
Time TempWeatherWind HumidityBarometerVisibility
2:00 AM
Wed, May 6
64 °FClear.6 mph94%29.89 "Hg10 mi
1:30 AM64 °FClear.5 mph94%29.89 "Hg10 mi
1:00 AM64 °FClear.5 mph94%29.89 "Hg10 mi
12:30 AM66 °FClear.5 mph94%29.89 "Hg10 mi
12:00 AM66 °FClear.3 mph94%29.89 "Hg10 mi
11:30 PM
Tue, May 5
66 °FClear.5 mph94%29.89 "Hg10 mi
11:00 PM66 °FClear.3 mph94%29.89 "Hg10 mi
10:30 PM68 °FClear.6 mph88%29.89 "Hg10 mi
10:00 PM66 °FClear.7 mph94%29.89 "Hg10 mi
9:30 PM68 °FClear.5 mph88%29.89 "Hg10 mi
9:00 PM68 °FClear.No wind88%29.89 "Hg10 mi
8:30 PM68 °FPassing clouds.No wind88%29.89 "HgN/A
8:00 PM70 °FPassing clouds.No wind83%29.89 "HgN/A
7:30 PM70 °FPassing clouds.7 mph83%29.86 "HgN/A
7:00 PM70 °FPassing clouds.7 mph88%29.86 "HgN/A
6:30 PM70 °FPassing clouds.8 mph88%29.86 "HgN/A
6:00 PM70 °FPassing clouds.9 mph83%29.83 "HgN/A
5:30 PM70 °FPassing clouds.9 mph83%29.83 "HgN/A
5:00 PM72 °FPassing clouds.9 mph78%29.83 "HgN/A
4:30 PM73 °FPassing clouds.10 mph74%29.83 "HgN/A
4:00 PM75 °FPassing clouds.10 mph65%29.80 "HgN/A
3:30 PM75 °FPassing clouds.10 mph65%29.83 "HgN/A
3:00 PM77 °FPassing clouds.10 mph61%29.83 "HgN/A
2:30 PM77 °FPassing clouds.10 mph61%29.83 "HgN/A
2:00 PM77 °FPassing clouds.10 mph61%29.83 "HgN/A
1:30 PM77 °FPassing clouds.9 mph57%29.83 "HgN/A
1:00 PM77 °FPassing clouds.9 mph61%29.86 "HgN/A
12:30 PM77 °FPassing clouds.9 mph57%29.86 "HgN/A
12:00 PM77 °FPassing clouds.8 mph61%29.89 "HgN/A
11:30 AM77 °FPassing clouds.7 mph57%29.89 "HgN/A
11:00 AM77 °FPassing clouds.7 mph57%29.92 "HgN/A
10:30 AM77 °FPassing clouds.7 mph61%29.92 "HgN/A
10:00 AM75 °FPassing clouds.2 mph65%29.92 "HgN/A
9:30 AM73 °FPassing clouds.3 mph69%29.95 "HgN/A
9:00 AM72 °FSunny.7 mph73%29.95 "Hg10 mi
8:00 AM68 °FSunny.8 mph83%29.92 "Hg10 mi
7:00 AM63 °FSunny.6 mph94%29.92 "Hg10 mi
6:30 AM61 °FSunny.7 mph100%29.92 "Hg10 mi
6:00 AM61 °FSunny.7 mph94%29.92 "Hg10 mi
5:30 AM61 °FSunny.7 mph94%29.92 "Hg10 mi
5:00 AM63 °FClear.6 mph94%29.89 "Hg10 mi
4:30 AM63 °FClear.5 mph94%29.89 "Hg10 mi
4:00 AM63 °FClear.5 mph94%29.89 "Hg10 mi
3:30 AM63 °FClear.3 mph94%29.89 "Hg10 mi
3:00 AM63 °FClear.7 mph94%29.89 "Hg10 mi
Weather by CustomWeather, © 2015

See weather overviewHow to use our weather pages